Colorado City, AZ

4:41 PM MST on November 18, 2019 (GMT -0700)
Colorado City Municipal

Weather History for KAZC - September, 2019

Change the Weather History Date:

Friday, September 27, 2019

  Actual Average (KSGU) Record (KSGU)
Temperature  
Mean Temperature 64 °F -  
Max Temperature 82 °F 89 °F 102 °F (1942)
Min Temperature 46 °F 54 °F 35 °F (1934)
Degree Days  
Heating Degree Days 1    
Growing Degree Days 14 (Base 50)    
Moisture  
Dew Point 48 °F    
Average Humidity 60    
Maximum Humidity 87    
Minimum Humidity 30    
Precipitation  
Precipitation 0.00 in - - ()
Sea Level Pressure  
Sea Level Pressure 29.97 in    
Wind  
Wind Speed 4 mph (West)    
Max Wind Speed 14 mph    
Max Gust Speed 20 mph    
Visibility 10 miles    
Events      
Averages and records for this station are not official NWS values.
T = Trace of Precipitation, MM = Missing Value Source: NWS Daily Summary

Daily Weather History Graph

Daily Weather History Graph

Search for Another Location

Airport or City:

Astronomy

Sep. 27, 2019 Rise Set
Actual Time 6:23 AM MST 6:21 PM MST
Civil Twilight 5:58 AM MST 6:47 PM MST
Nautical Twilight 5:27 AM MST 7:17 PM MST
Astronomical Twilight 4:57 AM MST 7:47 PM MST
Moon 4:54 AM MST (9/27) 6:11 PM MST (9/27)
Length of Visible Light 12h 49m
Length of Day
11h 57m
Waning Crescent, 1% of the Moon is Illuminated
Sep 27
Waning Crescent
Sep 28
New
Oct 5
First Quarter
Oct 13
Full
Oct 21
Last Quarter

Hourly Weather History & Observations

Time (MST) Temp. Windchill Dew Point Humidity Pressure Visibility Wind Dir Wind Speed Gust Speed Precip Events Conditions
12:15 AM 53.6 °F - 46.4 °F 77% 30.05 in - SSE 3.5 mph - N/A   Clear
12:35 AM 51.8 °F - 44.6 °F 76% 30.05 in - SE 3.5 mph - N/A   Clear
12:55 AM 51.8 °F - 46.4 °F 82% 30.05 in - Calm Calm - N/A   Clear
1:15 AM 51.8 °F - 44.6 °F 76% 30.05 in - ESE 3.5 mph - N/A   Clear
1:35 AM 50.0 °F - 44.6 °F 82% 30.05 in - SSE 3.5 mph - N/A   Clear
1:55 AM 50.0 °F - 44.6 °F 82% 30.05 in - SSE 3.5 mph - N/A   Clear
2:15 AM 50.0 °F - 44.6 °F 82% 30.04 in - Calm Calm - N/A   Clear
2:35 AM 50.0 °F - 44.6 °F 82% 30.04 in - Calm Calm - N/A   Clear
2:55 AM 50.0 °F - 44.6 °F 82% 30.04 in - SSE 5.8 mph - N/A   Clear
3:15 AM 50.0 °F - 44.6 °F 82% 30.03 in - ESE 3.5 mph - N/A   Unknown
3:35 AM 50.0 °F - 44.6 °F 82% 30.03 in - Calm Calm - N/A   Unknown
3:55 AM 50.0 °F - 44.6 °F 82% 30.04 in - SSE 3.5 mph - N/A   Clear
4:15 AM 48.2 °F - 44.6 °F 87% 30.04 in - SE 3.5 mph - N/A   Unknown
4:35 AM 48.2 °F - 44.6 °F 87% 30.04 in - SE 4.6 mph - N/A   Unknown
4:55 AM 46.4 °F 45.2 °F 42.8 °F 87% 30.04 in - ESE 3.5 mph - N/A   Unknown
5:15 AM 46.4 °F - 42.8 °F 87% 30.04 in - Calm Calm - N/A   Unknown
5:35 AM 46.4 °F - 42.8 °F 87% 30.03 in - Calm Calm - N/A   Unknown
5:55 AM 46.4 °F - 42.8 °F 87% 30.04 in - Calm Calm - N/A   Unknown
6:15 AM 46.4 °F 45.2 °F 42.8 °F 87% 30.03 in 10.0 mi ESE 3.5 mph - N/A   Clear
6:35 AM 46.4 °F - 42.8 °F 87% 30.03 in 10.0 mi Calm Calm - N/A   Clear
6:55 AM 48.2 °F - 44.6 °F 87% 30.04 in 10.0 mi SSE 3.5 mph - N/A   Clear
7:15 AM 51.8 °F - 46.4 °F 82% 30.04 in 10.0 mi Calm Calm - N/A   Clear
7:35 AM 53.6 °F - 48.2 °F 82% 30.04 in 10.0 mi Calm Calm - N/A   Clear
7:55 AM 57.2 °F - 50.0 °F 77% 30.04 in 10.0 mi Calm Calm - N/A   Clear
8:15 AM 60.8 °F - 51.8 °F 72% 30.04 in 10.0 mi Calm Calm - N/A   Clear
8:35 AM 64.4 °F - 51.8 °F 64% 30.05 in 10.0 mi Calm Calm - N/A   Clear
8:55 AM 66.2 °F - 53.6 °F 64% 30.05 in 10.0 mi Calm Calm - N/A   Clear
9:15 AM 68.0 °F - 53.6 °F 60% 30.04 in 10.0 mi Calm Calm - N/A   Clear
9:35 AM 71.6 °F - 51.8 °F 50% 30.04 in 10.0 mi SW 4.6 mph - N/A   Clear
9:55 AM 71.6 °F - 51.8 °F 50% 30.04 in 10.0 mi West 5.8 mph - N/A   Clear
10:15 AM 71.6 °F - 51.8 °F 50% 30.03 in 10.0 mi NNW 4.6 mph - N/A   Clear
10:35 AM 73.4 °F - 51.8 °F 47% 30.02 in 10.0 mi WSW 4.6 mph - N/A   Clear
10:55 AM 73.4 °F - 51.8 °F 47% 30.01 in 10.0 mi SW 5.8 mph - N/A   Clear
11:15 AM 73.4 °F - 51.8 °F 47% 30.01 in 10.0 mi WSW 5.8 mph - N/A   Clear
11:55 AM 78.8 °F - 50.0 °F 36% 29.99 in 10.0 mi WNW 9.2 mph 18.4 mph N/A   Clear
12:15 PM 78.8 °F - 50.0 °F 36% 29.98 in 10.0 mi WNW 12.7 mph 17.3 mph N/A   Clear
12:35 PM 78.8 °F - 50.0 °F 36% 29.97 in 10.0 mi NW 13.8 mph 19.6 mph N/A   Clear
12:55 PM 80.6 °F - 50.0 °F 34% 29.96 in 10.0 mi NW 10.4 mph 19.6 mph N/A   Clear
1:15 PM 80.6 °F - 50.0 °F 34% 29.95 in 10.0 mi WNW 11.5 mph 17.3 mph N/A   Clear
1:35 PM 80.6 °F - 48.2 °F 32% 29.94 in 10.0 mi WNW 9.2 mph 16.1 mph N/A   Clear
1:55 PM 80.6 °F - 48.2 °F 32% 29.93 in 10.0 mi NW 11.5 mph 18.4 mph N/A   Clear
2:15 PM 80.6 °F - 48.2 °F 32% 29.92 in 10.0 mi NW 12.7 mph 17.3 mph N/A   Clear
2:35 PM 82.4 °F - 50.0 °F 32% 29.91 in 10.0 mi West 9.2 mph 17.3 mph N/A   Clear
2:55 PM 82.4 °F - 50.0 °F 32% 29.90 in 10.0 mi NNE 3.5 mph - N/A   Clear
3:15 PM 82.4 °F - 50.0 °F 32% 29.89 in 10.0 mi West 9.2 mph - N/A   Clear
3:35 PM 82.4 °F - 50.0 °F 32% 29.89 in 10.0 mi SW 5.8 mph - N/A   Clear
3:55 PM 82.4 °F - 50.0 °F 32% 29.88 in 10.0 mi WNW 5.8 mph 17.3 mph N/A   Clear
4:15 PM 82.4 °F - 48.2 °F 30% 29.87 in 10.0 mi West 10.4 mph - N/A   Clear
4:35 PM 82.4 °F - 50.0 °F 32% 29.87 in 10.0 mi WNW 11.5 mph 19.6 mph N/A   Clear
4:55 PM 80.6 °F - 48.2 °F 32% 29.87 in 10.0 mi WSW 6.9 mph - N/A   Clear
5:15 PM 80.6 °F - 50.0 °F 34% 29.87 in 10.0 mi West 8.1 mph - N/A   Clear
5:35 PM 78.8 °F - 50.0 °F 36% 29.87 in 10.0 mi WNW 9.2 mph - N/A   Clear
5:55 PM 77.0 °F - 50.0 °F 39% 29.87 in 10.0 mi WNW 8.1 mph - N/A   Clear
6:15 PM 75.2 °F - 50.0 °F 41% 29.87 in 10.0 mi WNW 5.8 mph - N/A   Clear
6:35 PM 71.6 °F - 50.0 °F 46% 29.87 in 10.0 mi WNW 6.9 mph - N/A   Clear
6:55 PM 69.8 °F - 50.0 °F 49% 29.88 in 10.0 mi NW 4.6 mph - N/A   Clear
7:15 PM 71.6 °F - 50.0 °F 46% 29.89 in - NW 3.5 mph - N/A   Clear
7:35 PM 68.0 °F - 50.0 °F 52% 29.89 in - Calm Calm - N/A   Clear
7:55 PM 64.4 °F - 48.2 °F 56% 29.89 in - Calm Calm - N/A   Clear
8:15 PM 62.6 °F - 50.0 °F 63% 29.90 in - North 3.5 mph - N/A   Clear
8:35 PM 64.4 °F - 50.0 °F 59% 29.90 in - NNW 3.5 mph - N/A   Clear
8:55 PM 60.8 °F - 48.2 °F 63% 29.90 in - Calm Calm - N/A   Clear
9:15 PM 62.6 °F - 50.0 °F 63% 29.90 in - Calm Calm - N/A   Clear
9:35 PM 60.8 °F - 48.2 °F 63% 29.90 in - Calm Calm - N/A   Clear
9:55 PM 62.6 °F - 48.2 °F 59% 29.89 in - Calm Calm - N/A   Clear
10:15 PM 59.0 °F - 48.2 °F 67% 29.89 in - Calm Calm - N/A   Clear
10:35 PM 55.4 °F - 46.4 °F 72% 29.89 in - Calm Calm - N/A   Clear
10:55 PM 57.2 °F - 46.4 °F 67% 29.89 in - Calm Calm - N/A   Clear
11:15 PM 59.0 °F - 48.2 °F 67% 29.89 in - ESE 4.6 mph - N/A   Clear
11:35 PM 59.0 °F - 50.0 °F 72% 29.89 in - SE 3.5 mph - N/A   Clear
11:55 PM 57.2 °F - 48.2 °F 72% 29.89 in - East 4.6 mph - N/A   Clear